Bartlesville, OK

8:00 AM CST on December 11, 2016 (GMT -0600)
Bartlesville Municipal

Weather History for KBVO - February, 2014

Change the Weather History Date:

Sunday, February 23, 2014

  Actual Average Record
Temperature  
Mean Temperature 40 °F -  
Max Temperature 50 °F 57 °F 79 °F (1982)
Min Temperature 28 °F 31 °F 10 °F (1989)
Degree Days  
Heating Degree Days 25    
Moisture  
Dew Point 21 °F    
Average Humidity 51    
Maximum Humidity 76    
Minimum Humidity 27    
Precipitation  
Precipitation 0.00 in - - ()
Sea Level Pressure  
Sea Level Pressure 30.16 in    
Wind  
Wind Speed 13 mph (NNE)    
Max Wind Speed 20 mph    
Max Gust Speed 28 mph    
Visibility 10 miles    
Events      
Averages and records for this station are not official NWS values.
T = Trace of Precipitation, MM = Missing Value Source: NWS Daily Summary

Daily Weather History Graph

Daily Weather History Graph

Search for Another Location

Airport or City:

Trip Planner

Search our weather history database for the weather conditions in past years. The results will help you decide how hot, cold, wet, or windy it might be!

Date:

Astronomy

Feb. 23, 2014 Rise Set
Actual Time 7:02 AM CST 6:12 PM CST
Civil Twilight 6:36 AM CST 6:38 PM CST
Nautical Twilight 6:06 AM CST 7:08 PM CST
Astronomical Twilight 5:36 AM CST 7:38 PM CST
Moon 1:57 AM CST (2/23) 12:20 PM CST (2/23)
Length of Visible Light 12h 02m
Length of Day
11h 10m
Last Quarter, 38% of the Moon is Illuminated
Feb 23
Last Quarter
Mar 1
New
Mar 8
First Quarter
Mar 16
Full
Mar 23
Last Quarter

Hourly Weather History & Observations

Time (CST) Temp. Windchill Dew Point Humidity Pressure Visibility Wind Dir Wind Speed Gust Speed Precip Events Conditions
12:53 AM 43.0 °F 37.2 °F 32.0 °F 65% 29.94 in 10.0 mi NNE 10.4 mph - N/A   Clear
1:53 AM 39.9 °F 33.9 °F 30.9 °F 70% 29.95 in 10.0 mi NNE 9.2 mph - N/A   Clear
2:53 AM 36.0 °F 25.3 °F 28.9 °F 76% 29.98 in 10.0 mi North 19.6 mph 25.3 mph N/A   Clear
3:53 AM 34.0 °F 23.8 °F 27.0 °F 75% 29.99 in 10.0 mi NNE 16.1 mph - N/A   Clear
4:53 AM 33.1 °F 23.0 °F 25.0 °F 72% 30.04 in 10.0 mi NNE 15.0 mph 23.0 mph N/A   Clear
5:53 AM 32.0 °F 21.2 °F 23.0 °F 69% 30.07 in 10.0 mi NNE 16.1 mph 24.2 mph N/A   Clear
6:53 AM 32.0 °F 21.2 °F 21.0 °F 64% 30.09 in 10.0 mi NNE 16.1 mph 25.3 mph N/A   Clear
7:53 AM 32.0 °F 20.5 °F 18.0 °F 56% 30.13 in 10.0 mi NNE 18.4 mph 27.6 mph N/A   Clear
8:53 AM 35.1 °F 25.9 °F 14.0 °F 42% 30.17 in 10.0 mi NNE 13.8 mph 20.7 mph N/A   Clear
9:53 AM 39.0 °F 30.3 °F 15.1 °F 38% 30.18 in 10.0 mi NE 16.1 mph 25.3 mph N/A   Clear
10:53 AM 43.0 °F 36.4 °F 17.1 °F 35% 30.18 in 10.0 mi NE 12.7 mph 26.5 mph N/A   Clear
12:53 PM 48.0 °F - 17.1 °F 29% 30.19 in 10.0 mi North 13.8 mph 25.3 mph N/A   Clear
1:53 PM 48.9 °F - 17.1 °F 28% 30.18 in 10.0 mi North 17.3 mph 26.5 mph N/A   Clear
2:53 PM 50.0 °F - 17.1 °F 27% 30.19 in 10.0 mi NE 15.0 mph 23.0 mph N/A   Clear
3:53 PM 50.0 °F - 18.0 °F 28% 30.19 in 10.0 mi NE 11.5 mph 21.9 mph N/A   Clear
4:53 PM 46.9 °F - 19.9 °F 34% 30.20 in 10.0 mi NNE 18.4 mph 23.0 mph N/A   Clear
5:53 PM 43.0 °F 37.2 °F 21.9 °F 43% 30.22 in 10.0 mi NNE 10.4 mph - N/A   Clear
6:53 PM 39.0 °F 34.0 °F 21.9 °F 50% 30.24 in 10.0 mi NE 6.9 mph - N/A   Clear
7:53 PM 37.0 °F 30.4 °F 21.9 °F 54% 30.27 in 10.0 mi NNE 9.2 mph - N/A   Clear
8:53 PM 35.1 °F 27.9 °F 19.9 °F 54% 30.29 in 10.0 mi NNE 9.2 mph - N/A   Clear
9:53 PM 33.1 °F 24.9 °F 18.0 °F 54% 30.30 in 10.0 mi NNE 10.4 mph - N/A   Clear
10:53 PM 30.9 °F 24.3 °F 17.1 °F 57% 30.30 in 10.0 mi NNE 6.9 mph - N/A   Clear
11:53 PM 28.0 °F 20.8 °F 17.1 °F 63% 30.30 in 10.0 mi NNE 6.9 mph - N/A   Clear